Location: Amsterdam
(30.7274°N, 84.4357°W)
Time: 19:41:07
(UTC+00:00)

Altair - Pass Details

Date: 08 August 2024
Orbit: 1501 x 1682 km, 47.2° (Epoch: 07 September)

Event Time Altitude Azimuth Distance (km) Brightness Sun altitude
Rises 19:18:54 0° 262° (W) 4,873 10.5 63.6°
Reaches altitude 10° 19:22:23 10° 270° (W) 3,864 10.1 62.9°
Maximum altitude 19:31:26 40° 337° (NNW) 2,204 8.9 61.2°
Drops below altitude 10° 19:40:13 10° 45° (NE) 3,734 9.4 59.4°
Sets 19:43:32 0° 53° (NE) 4,696 9.7 58.8°
